Regional Weather Roundup
Issued by NWS Cleveland, OH

Home | Current Version | Previous Version | Text Only | Print | Product List | Glossary Off
Versions: 1 2 3 4 5 6 7 8 9 10 11 12 13 14 15 16 17 18 19 20 21 22 23 24 25 26 27 28 29 30 31 32 33 34 35 36 37 38 39 40 41 42 43 44 45 46 47 48 49 50

360
ASUS41 KCLE 221410
RWRCLE
OHIO REGIONAL WEATHER ROUNDUP
NATIONAL WEATHER SERVICE CLEVELAND, OH
900 AM EST SUN JAN 22 2017

NOTE: "FAIR" INDICATES FEW OR NO CLOUDS BELOW 12,000 FEET WITH NO
SIGNIFICANT WEATHER AND/OR OBSTRUCTIONS TO VISIBILITY.

OHZ001>008-015>018-024>027-034-035-043-044-221500-
   NORTHWEST OHIO

CITY           SKY/WX    TMP DP  RH WIND       PRES   REMARKS
DEFIANCE       CLEAR     41  40  96 CALM      29.61R FOG
FINDLAY        CLOUDY    49  46  90 SE8       29.61R
TOLEDO EXPRESS MOCLDY    44  44 100 S3        29.61R FOG
TOLEDO EXEC    CLOUDY    46  46 100 SE6       29.62S FOG
LIMA           MOCLDY    48  48 100 SE8       29.61R
$$

OHZ009>014-019>023-028>033-038-089-221500-
   NORTHEAST OHIO

CITY           SKY/WX    TMP DP  RH WIND       PRES   REMARKS
CLE-HOPKINS    PTSUNNY   49  45  86 S7        29.66R
CLE-LAKEFRONT  MOSUNNY   53  50  89 SE9       29.63R
CUY CO. ARPT   PTSUNNY   52  50  93 S9        29.64S
LORAIN-ELYRIA  SUNNY     47  45  93 S7        29.64R
ASHTABULA      CLOUDY    49  49 100 E5        29.66R FOG
AKRON-CANTON   CLOUDY    50  47  89 SE7       29.65R FOG
WOOSTER        FOG       44  43  96 CALM      29.66R VSB 1/4
MANSFIELD      CLOUDY    47  47 100 S5        29.65R FOG
YOUNGSTOWN     PTSUNNY   50  48  93 SE6       29.66R
$$

OHZ042-051>053-060>062-070>072-077>081-221500-
  SOUTHWEST OHIO

CITY           SKY/WX    TMP DP  RH WIND       PRES   REMARKS
CINC-COVINGTON CLOUDY    51  49  92 E9        29.56F
CINC-LUNKEN    PTSUNNY   43  43 100 CALM      29.58F FOG
HAMILTON       CLOUDY    45  45 100 N6        29.60S FOG
DAYTON         CLOUDY    45  45 100 NE6       29.61F
WRIGHT-PAT AFB NOT AVBL
DAYTON GENERAL PTSUNNY   47  46  97 NE8       29.59S FOG
WILMINGTON     CLOUDY    48  47  96 NE8       29.59S
$$

OHZ036-037-039>041-045>050-054>059-063>069-073>076-082>088-221500-
  CENTRAL AND SOUTHEAST OHIO

CITY           SKY/WX    TMP DP  RH WIND       PRES   REMARKS
COLUMBUS       CLOUDY    50  47  89 NW5       29.61F
OSU AIRPORT    MOSUNNY   48  48 100 N6        29.62S FOG
BOLTON FIELD   SUNNY     46  46 100 CALM      29.62F FOG
RICKENBACK AFB   N/A     48  48 100 E3        29.61S FOG
NEWARK         PTSUNNY   46  44  93 E3        29.62F FOG
MARION         CLOUDY    46  45  96 CALM      29.64R FOG
LANCASTER      CLOUDY    48  46  93 CALM      29.62S FOG
ZANESVILLE     PTSUNNY   49  47  93 N3        29.63S FOG
NEW PHILLY     NOT AVBL
$$




USA.gov is the U.S. government's official web portal to all federal, state and local government web resources and services.